Regional Weather Roundup
Issued by NWS Cleveland, OH

Home | Current Version | Previous Version | Text Only | Print | Product List | Glossary Off
Versions: 1 2 3 4 5 6 7 8 9 10 11 12 13 14 15 16 17 18 19 20 21 22 23 24 25 26 27 28 29 30 31 32 33 34 35 36 37 38 39 40 41 42 43 44 45 46 47 48 49 50

000
ASUS41 KCLE 260602
RWRCLE
OHIO REGIONAL WEATHER ROUNDUP
NATIONAL WEATHER SERVICE CLEVELAND, OH
100 AM EST MON JAN 26 2015

NOTE: "FAIR" INDICATES FEW OR NO CLOUDS BELOW 12,000 FEET WITH NO
SIGNIFICANT WEATHER AND/OR OBSTRUCTIONS TO VISIBILITY.

OHZ001>008-015>018-024>027-034-035-043-044-260700-
   NORTHWEST OHIO

CITY           SKY/WX    TMP DP  RH WIND       PRES   REMARKS
DEFIANCE       LGT SNOW  19   9  65 NE12      29.93S WCI   7
FINDLAY        LGT SNOW  18  13  80 NE15      29.87S WCI   4
TOLEDO EXPRESS CLOUDY    18   7  62 NE13      29.93S WCI   5
TOLEDO EXEC    CLOUDY    18   7  62 NE15G22   29.94S WCI   4
LIMA           LGT SNOW  18  13  80 N17G24    29.84S VSB 1   WCI   3
$$

OHZ009>014-019>023-028>033-038-089-260700-
   NORTHEAST OHIO

CITY           SKY/WX    TMP DP  RH WIND       PRES   REMARKS
CLE-HOPKINS    LGT SNOW  20  15  81 NE15      29.89F WCI   6
CLE-LAKEFRONT  LGT SNOW  21  13  71 NE15      29.88F WCI   8
CUY CO. ARPT   NOT AVBL
LORAIN-ELYRIA  LGT SNOW  19  16  88 NE16G24   29.87F FOG     WCI   4
ASHTABULA      CLOUDY    17   5  59 NE9       29.88F WCI   6
AKRON-CANTON   LGT SNOW  20  15  81 NE14      29.78F VSB 1   WCI   7
WOOSTER        LGT SNOW  19  16  88 N13       29.80F FOG     WCI   6
MANSFIELD      LGT SNOW  19  16  88 N13       29.79S VSB 1   WCI   6
YOUNGSTOWN     LGT SNOW  19  16  88 NE13      29.81F FOG     WCI   6
$$

OHZ042-051>053-060>062-070>072-077>081-260700-
  SOUTHWEST OHIO

CITY           SKY/WX    TMP DP  RH WIND       PRES   REMARKS
CINC-COVINGTON LGT SNOW  28  25  88 N14       29.71R FOG     WCI  17
CINC-LUNKEN    LGT SNOW  30  30 100 N9        29.74R FOG     WCI  22
HAMILTON       LGT SNOW  26  24  92 N10       29.76S FOG     WCI  16
DAYTON         LGT SNOW  23  20  88 N15       29.77S FOG     WCI  10
WRIGHT-PAT AFB LGT SNOW  23  21  93 N14G22    29.76S FOG     WCI  11
DAYTON GENERAL LGT SNOW  24  22  91 N14       29.73S VSB 3/4 WCI  12
WILMINGTON     LGT SNOW  25  22  88 N16       29.71S FOG     WCI  12
$$

OHZ036-037-039>041-045>050-054>059-063>069-073>076-082>088-260700-
  CENTRAL AND SOUTHEAST OHIO

CITY           SKY/WX    TMP DP  RH WIND       PRES   REMARKS
COLUMBUS       LGT SNOW  26  22  84 N14       29.75S FOG     WCI  14
OSU AIRPORT    LGT SNOW  24  21  88 N12       29.75F FOG     WCI  13
BOLTON FIELD   NOT AVBL
RICKENBACK AFB NOT AVBL
NEWARK         LGT SNOW  27  23  85 NE8       29.74F FOG     WCI  19
MARION         LGT SNOW  20  16  84 NE17      29.80S FOG     WCI   5
LANCASTER      LGT SNOW  29  27  92 NE12      29.73F FOG     WCI  19
ZANESVILLE     LGT SNOW  29  26  89 N8        29.73F FOG     WCI  21
NEW PHILLY     LGT SNOW  24  20  84 N7        29.78F FOG     WCI  16
$$



USA.gov is the U.S. government's official web portal to all federal, state and local government web resources and services.